Skip Page Navigation
NASA JPL Caltech
NASA Logo - Jet Propulsion Laboratory + View the NASA Portal
+ Center for Near-Earth Object Studies
JPL Home Earth Solar System Stars & Galaxies Technology
JPL Solar System Dynamics
BODIES ORBITS EPHEMERIDES TOOLS PHYSICAL DATA DISCOVERY FAQ SITE MAP
IMPORTANT: The SSD Announcement email list is now available. Major changes are coming in the near future, including possible hostname and/or URL changes. To be notified of such changes, subscribe to this email list.

Please visit this page for more details.


JPL Small-Body Database Browser
Search: [ help ]  
488 Kreusa (A902 MC)
Classification: Main-belt Asteroid          SPK-ID: 2000488
Ephemeris | Orbit Diagram | Orbital Elements | Mission Design | Physical Parameters | Discovery Circumstances | Close-Approach Data ]

[ hide orbit diagram ]

For accurate long-term ephemerides, please instead use our Horizons system.This orbit viewer was implemented using two-body methods, and hence should not be used for determining accurate long-term trajectories (over several years or decades) or planetary encounter circumstances.


[ revert to old Java-based viewer ]

Orbital Elements at Epoch 2459000.5 (2020-May-31.0) TDB
Reference: JPL 103 (heliocentric ecliptic J2000)
 Element Value Uncertainty (1-sigma)   Units 
e .1585210433955065 3.9752e-08  
a 3.169597605661367 1.3248e-08 au
q 2.667149686068028 1.2413e-07 au
i 11.51875974717612 4.9011e-06 deg
node 84.22160070157143 2.2659e-05 deg
peri 71.84197022124357 2.7646e-05 deg
M 81.85116377419361 1.4999e-05 deg
tp 2458531.873352799017
(2019-Feb-17.37335280)
8.5883e-05 TDB
period 2061.126381266482
5.64
1.2923e-05
3.538e-08
d
yr
n .1746617787594345 1.0951e-09 deg/d
Q 3.672045525254706 1.5348e-08 au
  Orbit Determination Parameters
   # obs. used (total)      2321  
   data-arc span      43454 days (118.97 yr)  
   first obs. used      1901-02-13  
   last obs. used      2020-02-03  
   planetary ephem.      DE431  
   SB-pert. ephem.      SB431-N16  
   condition code      0  
   norm. resid. RMS      .44087  
   source      ORB  
   producer      Otto Matic  
   solution date      2020-Feb-22 15:28:32  

Additional Information
 Earth MOID = 1.70553 au 
 Jupiter MOID = 1.51866 au 
 T_jup = 3.152 
[ show covariance matrix ]

Ephemeris | Orbit Diagram | Orbital Elements | Mission Design | Physical Parameters | Discovery Circumstances | Close-Approach Data ]

Physical Parameter Table
Parameter Symbol Value Units Sigma Reference Notes
absolute magnitude H 8.0   n/a MPO492754 IRAS observations used: 20
diameter diameter 168.117 km 2.062 urn:nasa:pds:neowise_diameters_albedos::2.0[mainbelt] (http://adsabs.harvard.edu/abs/2012ApJ...759L...8M)  
rotation period rot_per 32.645 h n/a LCDB (Rev. 2019-August); Warner et al., 2009 Published Reference List:
[Stephens, R.D. (2014) Minor Planet Bull. 41, 226-230.]
[Pilcher, F. (2019) Minor Planet Bull. 46, 360-363.]
geometric albedo albedo 0.047   0.006 urn:nasa:pds:neowise_diameters_albedos::2.0[mainbelt] (http://adsabs.harvard.edu/abs/2012ApJ...759L...8M)  
B-V BV 0.691   0.006 EAR-A-5-DDR-UBV-MEAN-VALUES-V1.2 #obs=2; phase (min.=7.94, mean=12.60, max.=17.25) deg.
U-B UB 0.368   0.030 EAR-A-5-DDR-UBV-MEAN-VALUES-V1.2 #obs=2; phase (min.=7.94, mean=12.60, max.=17.25) deg.
Tholen spectral type spec_T C   n/a EAR-A-5-DDR-TAXONOMY-V4.0 used 4 color indices

488 Kreusa (A902 MC)          Discovered 1902-Jun-26 by Wolf, M. and Carnera, L. at Heidelberg
Reference: DISCOVERY.DBLast Updated: 2003-08-29

[ show close-approach data ]
Alternate Designations
 A902 MC = 1947 KH = 1977 YD = A901 CA = A905 XA 
Ephemeris | Orbit Diagram | Orbital Elements | Mission Design | Physical Parameters | Discovery Circumstances | Close-Approach Data ]
ABOUT SSD CREDITS/AWARDS PRIVACY/COPYRIGHT GLOSSARY LINKS
FirstGov 2020-Apr-10 05:22 UT
(server date/time)  
NASA Home Page
Site Manager:   Ryan S. Park
Webmaster  Alan B. Chamberlin